www.pogodaiklimat.ru

Погода и климат >> Архив погоды >> Россия >> Красноярский край >> Щетинкино


ПОГОДА в Щетинкино

  • Прогноз погоды в Щетинкино
  • Монитор погоды в Щетинкино

АРХИВ ПОГОДЫ в Щетинкино

Время (UTC), дата Ветер
(напр.,м/с)
 
Видим.   Явления Облачность Т
(С)
Тd
(С)
f
(%)
Тe
(С)
Тes
(С)
Комфортность P
(гПа)
Po
(гПа)
Тmin
(С)
Tmax
(С)
R
(мм)
R24
(мм)
S
(см)
21 19.03 штиль 0 н/о 10/0
[Cs]
-15.8 -17.6 86 -16 -16 1035.2 931.4
00 20.03 штиль 0 4000 м слаб. снег 10/0 2000 м
[As op]
-14.8 -16.8 85 -15 -15 1035.6 932.2 -16.2 0.0 117
03 20.03 штиль 0 4000 м слаб. снег 10/0
[As op]
-8.3 -11.5 78 -9 -8 1034.1 933.2
06 20.03 Ю 2 50 км {снег} 9/6 600 м
[Sc Ac trans]
-4.6 -7.3 81 -9 -7 1032.4 933.0
09 20.03 В 2 4000 м слаб. ливневой снег 9/9 600 м
[Cb cap]
-4.8 -7.6 81 -9 -9 1032.7 933.2
12 20.03 штиль 0 50 км {ливн. осадки} 8/8 600 м
[Cb cap]
-6.7 -9.5 80 -7 -7 1034.4 934.1 -3.1 3
15 20.03 З 1 н/о слаб. ливневой снег 9/9 600 м
[Cb cap]
-11.0 -12.3 90 -13 -13 1037.2 935.0
18 20.03 штиль 0 н/о {ливн. осадки} 6/0
[Ac trans]
-15.6 -16.9 90 -16 -16 1039.4 935.3
21 20.03 штиль 0 н/о 4/0
[Ci fib]
-17.4 -19.3 85 -17 -17 1039.8 934.8
00 21.03 СЗ 1 50 км 9/0
[Cs]
-16.0 -17.9 85 -19 -19 1039.4 935.0 -18.6 0.0 119
03 21.03 штиль 0 4000 м слаб. ливневой снег 9/9 600 м
[Cb cap]
-9.9 -12.5 81 -10 -10 1037.6 935.6
06 21.03 Ю 3 50 км {ливн. осадки} 9/9 600 м
[Cb cap]
-5.2 -9.7 71 -10 -10 1035.1 935.2
09 21.03 Ю 2 50 км 8/8 600 м
[Cb cap]
-3.0 -9.3 62 -7 -6 1033.3 934.3
12 21.03 ЮВ 1 50 км 6/0
[Ci fib]
-4.6 -10.3 64 -7 -7 1033.3 933.7 -1.7 0.0
15 21.03 штиль 0 н/о ясно -12.9 -14.2 90 -13 -13 1036.7 933.8
18 21.03 штиль 0 н/о ясно -17.3 -19.2 85 -17 -17 1038.4 933.6
21 21.03 штиль 0 н/о ясно -19.2 -21.8 80 -19 -19 1038.3 932.8
00 22.03 штиль 0 50 км ясно -21.3 -23.8 80 -21 -21 1038.7 932.4 -21.4 119
03 22.03 штиль 0 50 км 3/0
[Ci fib]
-7.2 -11.5 71 -8 -2 1032.0 931.6
06 22.03 Ю 4 50 км 3/0
[Ci fib]
+1.2 -10.0 43 -3 +2 1027.0 930.1
09 22.03 Ю 5
{10}
50 км 4/0
[Ci fib]
+3.8 -11.2 32 -0 +2 1023.7 928.0
12 22.03 Ю 4 50 км 8/0
[Ci fib]
+1.3 -10.9 40 -3 -3 1023.9 927.3 +4.2
15 22.03 штиль 0 н/о 4/0
[Cs]
-5.9 -10.2 72 -7 -7 1026.2 926.9
18 22.03 штиль 0 н/о 8/0
[Cs]
-9.9 -12.5 81 -10 -10 1027.4 926.5
21 22.03 штиль 0 н/о 6/0
[Ci fib]
-12.0 -14.0 85 -12 -12 1027.8 926.2
00 23.03 штиль 0 50 км 8/0
[Cs]
-14.4 -16.4 85 -14 -14 1028.6 926.0 -14.4 118
03 23.03 ЮВ 2 50 км 9/0
[Cs]
-3.4 -11.2 55 -7 -3 1024.3 926.0 -14.7
06 23.03 Ю 4 50 км 6/0
[Ac trans]
+3.5 -11.2 33 -0 +3 1020.6 925.0
09 23.03 ЮЗ 4
{10}
50 км 9/5 600 м
[Sc Ac trans]
+5.1 -14.8 22 +2 +3 1018.9 924.0
12 23.03 СЗ 2 50 км 9/5 600 м
[Cb cap Ac trans]
+3.2 -10.1 37 +1 +1 1019.5 924.0 +5.5
15 23.03 штиль 0 н/о ясно -2.8 -6.2 77 -4 -4 1021.0 923.4
18 23.03 СЗ 1 н/о 8/0
[Ac trans]
-6.3 -9.5 78 -9 -9 1022.0 923.0
21 23.03 штиль 0 50 км 9/0 2000 м
[Ac trans]
-5.9 -9.0 79 -7 -7 1021.2 922.4 -7.3 115
00 24.03 СЗ 1 50 км 9/0 2000 м
[Ac trans]
-4.9 -8.1 78 -7 -7 1021.3 922.8 -7.3 115
03 24.03 штиль 0 50 км 1/0
[Ac lent Ci sp]
-0.3 -6.3 64 -1 +5 1019.6 922.9
06 24.03 Ю 4 50 км ясно +4.2 -8.3 40 +1 +6 1016.7 921.7
09 24.03 Ю 4
{10}
50 км 4/0
[Ci sp]
+6.0 -10.6 29 +3 +6 1015.2 921.0
12 24.03 Ю 2 50 км 9/0 2000 м
[Ac lent Ci sp]
+3.7 -9.7 37 +2 +2 1015.3 920.4 +6.2
15 24.03 штиль 0 н/о 9/0
[Ac As]
-0.8 -5.0 73 -2 -2 1016.7 920.1
18 24.03 СЗ 2 н/о 9/0
[Ac As]
+1.6 -5.0 61 -1 -1 1015.3 919.5
21 24.03 СЗ 2 н/о 10/0
[Ac As]
-0.6 -3.4 81 -4 -4 1016.0 919.6
00 25.03 штиль 0 4000 м слаб. снег 10/10 600 м
[Sc]
-1.6 -2.8 92 -3 -3 1016.9 920.1 -1.6 1 114
03 25.03 СЗ 1 4000 м слаб. снег 10/10 600 м
[Sc]
+0.2 -2.5 82 -2 -2 1017.0 920.8
06 25.03 СЗ 4 50 км в посл. час снег 10/8 600 м
[Cb cap As op]
-0.6 -2.4 88 -6 -6 1018.7 922.1
09 25.03 СЗ 4 4000 м слаб. ливневой снег 10/10 600 м
[Cb cap]
-0.6 -5.5 69 -6 -6 1020.7 923.8
12 25.03 СЗ 3 4000 м слаб. ливневой снег 10/10 600 м
[Cb cap]
-2.6 -5.3 82 -8 -8 1024.7 926.7 +0.2 1
15 25.03 С 3 н/о {ливн. осадки} 10/10 600 м
[Cb cap]
-5.1 -8.4 78 -10 -10 1029.4 929.3
18 25.03 СЗ 1 н/о {ливн. осадки} ясно -10.2 -11.5 90 -13 -13 1032.1 930.6
21 25.03 СЗ 2 н/о 1/0
[Ci sp]
-11.2 -12.5 90 -16 -16 1033.9 931.9
00 26.03 штиль 0 50 км 4/0 2000 м
[Ac lent]
-13.4 -14.7 90 -13 -13 1036.8 933.7 -13.4 0.2 115
03 26.03 СЗ 1 50 км 6/0
[Ac trans]
-2.3 -9.1 60 -4 -0 1033.5 934.7
06 26.03 С 3 4000 м слаб. ливневой снег 9/9 600 м
[Cb cap]
-0.9 -5.5 71 -5 -5 1033.3 935.1
09 26.03 ЮВ 2 50 км {ливн. осадки} 9/9 600 м
[Cb cap]
+0.1 -4.3 72 -3 -3 1032.8 935.0
12 26.03 ЮВ 1 50 км {ливн. осадки} 8/4 600 м
[Cb cap Ac trans]
-1.8 -4.7 81 -4 -4 1034.4 935.8 +0.1 0.0
15 26.03 СЗ 1 н/о ясно -7.6 -9.4 87 -10 -10 1035.7 934.9
18 26.03 СЗ 2 н/о ясно -11.5 -12.8 90 -16 -16 1036.7 934.4

 

Местоположение метеостанции Щетинкино (Красноярский край, Россия): широта 54.53 долгота 93.43 высота над уровнем моря 804 м.

В архиве по умолчанию представлена погода в Щетинкино за последнюю неделю. Архивные данные за месяц целиком и за предыдущие месяцы, начиная с января 2011 года, Вы можете получить, выбрав интересующий диапазон дат из раскрывающегося списка и нажав кнопку "Ввод!".


*Определитесь, кто Вы:
робот инопланетянин человек

Внимание! Время в таблицах - всемирное. Для получения местного времени необходимо прибавить поправку, которая равна 7 ч.

Смотрите также архив погоды в соседних городах и на ближайших метеорологических станциях:

Погода в Артемовске (Красноярский край, Россия) (3 км)
Погода в Анастасино (Красноярский край, Россия) (66 км)
Погода в Курагино (Красноярский край, Россия) (85 км)
Погода в Идринском (Красноярский край, Россия) (86 км)
Погода в Казыре (Красноярский край, Россия) (106 км)
Погода в Теси (Красноярский край, Россия) (109 км)
Погода в Каратузском (Красноярский край, Россия) (110 км)
Погода в Агинском (Красноярский край, Россия) (123 км)
Погода в Лебяжьем (Красноярский край, Россия) (125 км)
Погода в Шалинском (Красноярский край, Россия) (134 км)

Пояснения к столбцам:

Ветер - указаны скорость ветра в м/с - средняя за 10 мин, порывы в срок и между сроками (в фигурных скобках) и направление, откуда дует ветер: С - северный, СВ - северо-восточный, В - восточный, ЮВ - юго-восточный, Ю - южный, ЮЗ - юго-западный, З - западный, СЗ - северо-западный.
Видимость - горизонтальная дальность видимости в метрах или километрах. При видимости от 1 до 10 км при отсутствии осадков обычно наблюдается дымка, при ухудшении видимости до 1 км и менее - туман. В сухую погоду видимость может ухудшаться дымом, пылью или мглою.
Явления - указаны атмосферные явления, наблюдавшиеся в срок или в последний час перед сроком; фигурными скобками обозначены явления, наблюдавшиеся между сроками (за 1-3 часа до срока); квадратными скобками обозначены град или гололедные отложения с указанием их диаметра в мм.
Облачность - указаны через наклонную черту общая и нижняя облачность в баллах и высота нижней границы облаков в метрах; квадратными скобками обозначены формы облаков: Ci - перистые, Cs - перисто-слоистые, Cc - перисто-кучевые, Ac - высококучевые, As - высокослоистые, Sc - слоисто-кучевые, Ns - слоисто-дождевые, Cu - кучевые, Cb - кучево-дождевые. Подробнее классификацию облаков см. в Атласе облаков (PDF).
T - Температура воздуха - температура, измеренная на высоте 2 м над землей.
Td - Температура точки росы - температура, при понижении до которой содержащийся в воздухе водяной пар достигнет насыщения.
f - Относительная влажность воздуха - влажноcть воздуха, измеренная на высоте 2 м над землей.
Te - Эффективная температура - температура, которую ощущает одетый по сезону человек в тени. Характеристика душности погоды. При расчете учитывается влияние влажности воздуха и скорости ветра на теплоощущения человека.
Tes - Эффективная температура на солнце - температура, которую ощущает человек, с поправкой на солнечный нагрев. Характеристика знойности погоды. Зависит от высоты солнца над горизонтом, облачности и скорости ветра. Ночью, в пасмурную погоду, а также при ветре 12 м/с и более поправка равна нулю.
P - Атмосферное давление - приведенное к уровню моря атмосферное давление.
Po - Атмосферное давление - измеренное на уровне метеостанции атмосферное давление.
Tmin - Минимальная температура - минимум температуры воздуха на высоте 2 м над землей.
Tmax - Максимальная температура - максимум температуры воздуха на высоте 2 м над землей.
R - Количество осадков - Количество выпавших осадков за период времени, мм. При наведении курсора мыши на число - период времени, за который выпало указанное количество осадков.
R24 - Количество осадков - Количество выпавших осадков за 24 часа, мм.
S - Снежный покров - Высота снежного покрова, см. При наведении курсора мыши на число - состояние снежного покрова и степень покрытия местности в баллах.